Date String (YYYY-MM-DD hh:mm:ss) UTC,Instrument flags,absolute air pressure of the measurement (hPa),sample flow rate (lpm),inlet stack bypass flow (lpm),air temperature of the measurement (°C),ambient temperature measured by the external sensor (°C),aerosol sample conditioner tube jacket temperature (°C),OPC LED temperature (°C),internal box temperature (°C),relative humidity of the measurement (%),span deviation,mass concentration of particles derived from Lorenz-Mie calculation of OPC scattering (μg/m³),mass concentration of particles derived from Lorenz-Mie calculation of OPC scattering (μg/m³),mass concentration of particles derived from Lorenz-Mie calculation of OPC scattering (μg/m³)
DateTimeUTC,F1_M11,P_M11,Q1_M11,Q2_M11,T1_M11,T2_M11,T3_M11,T4_M11,T5_M11,U1_M11,ZSPAN_M11,X2_M11,X0_M11,X1_M11
2024-03-13 16:00:00,SystemResetWarning,0821.9,5.01,000.00,020.5,020.0,000.0,029.0,022.4,26.6,0000.0,0004.01,0010.32,0003.15
2024-03-13 16:01:00,SystemResetWarning,0822.0,5.00,000.00,020.5,020.0,000.0,029.0,022.4,26.6,0000.0,0003.99,0010.40,0003.13
2024-03-13 16:02:00,SystemResetWarning,0822.0,5.00,000.00,020.5,020.0,000.0,029.0,022.4,26.6,0000.0,0003.92,0009.38,0003.13
2024-03-13 16:03:00,SystemResetWarning,0822.0,5.00,000.00,020.6,020.0,000.0,029.0,022.4,26.6,0000.0,0003.88,0009.34,0003.13
2024-03-13 16:04:00,SystemResetWarning,0822.0,5.00,000.00,020.6,020.0,000.0,029.0,022.4,26.7,0000.0,0003.90,0009.49,0003.13
2024-03-13 16:05:00,SystemResetWarning,0822.0,4.99,000.00,020.6,020.0,000.0,029.0,022.4,26.8,0000.0,0003.95,0009.66,0003.14
2024-03-13 16:06:00,SystemResetWarning,0822.0,5.00,000.00,020.6,020.0,000.0,029.0,022.4,26.7,0000.0,0004.00,0009.33,0003.16
2024-03-13 16:07:00,SystemResetWarning,0821.9,5.00,000.00,020.6,020.0,000.0,029.0,022.4,26.8,0000.0,0004.00,0009.78,0003.16
2024-03-13 16:08:00,SystemResetWarning,0822.0,5.00,000.00,020.6,020.0,000.0,029.0,022.4,26.9,0000.0,0003.99,0009.85,0003.16
2024-03-13 16:09:00,SystemResetWarning,0821.9,5.01,000.00,020.6,020.0,000.0,029.0,022.4,27.0,0000.0,0004.00,0009.53,0003.17
2024-03-13 16:10:00,SystemResetWarning,0822.0,5.01,000.00,020.6,020.0,000.0,029.0,022.4,27.0,0000.0,0003.99,0009.54,0003.16
2024-03-13 16:11:00,SystemResetWarning,0822.0,5.00,000.00,020.6,020.0,000.0,029.0,022.4,26.9,0000.0,0003.97,0009.27,0003.15
2024-03-13 16:12:00,SystemResetWarning,0821.9,5.00,000.00,020.6,020.0,000.0,029.0,022.4,27.0,0000.0,0003.98,0009.19,0003.16
2024-03-13 16:13:00,SystemResetWarning,0821.9,4.99,000.00,020.6,020.0,000.0,029.0,022.4,26.9,0000.0,0004.02,0009.46,0003.16
2024-03-13 16:14:00,SystemResetWarning,0821.9,5.00,000.00,020.6,020.0,000.0,029.0,022.4,26.8,0000.0,0004.00,0009.31,0003.15
2024-03-13 16:15:00,SystemResetWarning,0821.9,5.00,000.00,020.6,020.0,000.0,029.0,022.4,26.9,0000.0,0004.02,0009.26,0003.15
2024-03-13 16:16:00,SystemResetWarning,0821.9,5.00,000.00,020.6,020.0,000.0,029.1,022.4,26.9,0000.0,0004.01,0009.19,0003.15
2024-03-13 16:17:00,SystemResetWarning,0821.9,5.00,000.00,020.6,020.0,000.0,029.1,022.4,26.8,0000.0,0004.01,0009.24,0003.15
2024-03-13 16:18:00,SystemResetWarning,0821.9,5.02,000.00,020.6,020.0,000.0,029.1,022.4,26.8,0000.0,0004.02,0008.72,0003.16
2024-03-13 16:19:00,SystemResetWarning,0822.0,4.99,000.00,020.6,020.0,000.0,029.1,022.4,26.8,0000.0,0004.01,0008.61,0003.17
2024-03-13 16:20:00,SystemResetWarning,0821.9,4.99,000.00,020.6,020.0,000.0,029.1,022.4,27.0,0000.0,0003.98,0009.25,0003.17
2024-03-13 16:21:00,SystemResetWarning,0822.0,5.00,000.00,020.6,020.0,000.0,029.1,022.4,26.8,0000.0,0004.01,0009.55,0003.17
2024-03-13 16:22:00,SystemResetWarning,0821.9,5.00,000.00,020.6,020.0,000.0,029.1,022.4,26.7,0000.0,0004.04,0009.61,0003.18
2024-03-13 16:23:00,SystemResetWarning,0821.9,5.00,000.00,020.6,020.0,000.0,029.1,022.4,27.0,0000.0,0004.06,0009.38,0003.19
2024-03-13 16:24:00,SystemResetWarning,0822.0,5.01,000.00,020.6,020.0,000.0,029.1,022.4,27.5,0000.0,0004.04,0009.10,0003.20
2024-03-13 16:25:00,SystemResetWarning,0821.9,5.00,000.00,020.6,020.0,000.0,029.1,022.4,27.6,0000.0,0004.03,0009.11,0003.22
2024-03-13 16:26:00,SystemResetWarning,0821.9,5.00,000.00,020.6,020.0,000.0,029.1,022.4,27.5,0000.0,0004.00,0008.99,0003.22
2024-03-13 16:27:00,SystemResetWarning,0821.9,5.00,000.00,020.6,019.9,000.0,029.1,022.4,27.3,0000.0,0004.00,0008.92,0003.23
2024-03-13 16:28:00,SystemResetWarning,0821.9,5.00,000.00,020.6,019.9,000.0,029.1,022.4,27.4,0000.0,0003.99,0008.89,0003.24
2024-03-13 16:29:00,SystemResetWarning,0821.9,5.00,000.00,020.6,019.9,000.0,029.1,022.4,27.2,0000.0,0004.00,0009.04,0003.24
2024-03-13 16:30:00,SystemResetWarning,0822.0,5.00,000.00,020.6,019.9,000.0,029.1,022.4,27.0,0000.0,0004.02,0009.11,0003.24
2024-03-13 16:31:00,SystemResetWarning,0822.0,5.00,000.00,020.6,019.9,000.0,029.1,022.4,27.0,0000.0,0004.10,0008.61,0003.25
2024-03-13 16:32:00,SystemResetWarning,0822.0,5.00,000.00,020.6,019.9,000.0,029.1,022.4,27.2,0000.0,0004.12,0009.03,0003.26
2024-03-13 16:33:00,SystemResetWarning,0822.0,5.00,000.00,020.6,019.9,000.0,029.1,022.4,27.5,0000.0,0004.12,0009.18,0003.27
2024-03-13 16:34:00,SystemResetWarning,0822.0,5.00,000.00,020.6,020.0,000.0,029.1,022.4,27.7,0000.0,0004.09,0009.63,0003.27
2024-03-13 16:35:00,SystemResetWarning,0822.0,5.00,000.00,020.6,020.0,000.0,029.1,022.4,27.9,0000.0,0004.09,0009.60,0003.27
2024-03-13 16:36:00,SystemResetWarning,0822.0,5.00,000.00,020.6,020.0,000.0,029.1,022.4,27.8,0000.0,0004.13,0009.65,0003.28
2024-03-13 16:37:00,SystemResetWarning,0821.9,5.00,000.00,020.6,020.0,000.0,029.1,022.4,27.4,0000.0,0004.13,0009.68,0003.28
2024-03-13 16:38:00,SystemResetWarning,0821.9,5.01,000.00,020.6,020.0,000.0,029.1,022.4,27.5,0000.0,0004.11,0009.66,0003.29
2024-03-13 16:39:00,SystemResetWarning,0821.9,5.00,000.00,020.6,020.0,000.0,029.1,022.4,27.3,0000.0,0004.07,0009.57,0003.29
2024-03-13 16:40:00,SystemResetWarning,0822.0,4.98,000.00,020.6,020.0,000.0,029.1,022.4,27.1,0000.0,0004.05,0009.59,0003.30
2024-03-13 16:41:00,SystemResetWarning,0821.9,5.00,000.00,020.6,020.0,000.0,029.1,022.4,26.9,0000.0,0004.05,0009.52,0003.30
2024-03-13 16:42:00,SystemResetWarning,0821.9,5.01,000.00,020.6,020.0,000.0,029.1,022.4,26.8,0000.0,0004.06,0009.50,0003.31
2024-03-13 16:43:00,SystemResetWarning,0822.0,5.00,000.00,020.6,020.0,000.0,029.1,022.4,26.7,0000.0,0004.04,0009.30,0003.30
2024-03-13 16:44:00,SystemResetWarning,0822.0,5.00,000.00,020.6,020.0,000.0,029.1,022.4,26.8,0000.0,0004.06,0008.73,0003.31
2024-03-13 16:45:00,SystemResetWarning,0822.0,5.00,000.00,020.6,020.0,000.0,029.1,022.4,26.8,0000.0,0004.13,0008.70,0003.33
2024-03-13 16:46:00,SystemResetWarning,0821.9,5.00,000.00,020.6,020.0,000.0,029.1,022.4,26.8,0000.0,0004.14,0008.72,0003.34
2024-03-13 16:47:00,SystemResetWarning,0821.9,5.01,000.00,020.6,020.0,000.0,029.1,022.4,26.7,0000.0,0004.16,0008.87,0003.35
2024-03-13 16:48:00,SystemResetWarning,0821.9,5.01,000.00,020.6,020.0,000.0,029.1,022.5,26.7,0000.0,0004.15,0008.91,0003.35
2024-03-13 16:49:00,SystemResetWarning,0821.9,5.00,000.00,020.6,020.0,000.0,029.1,022.5,26.6,0000.0,0004.15,0009.29,0003.35
2024-03-13 16:50:00,SystemResetWarning,0822.0,5.01,000.00,020.6,020.1,000.0,029.1,022.5,26.4,0000.0,0004.24,0009.90,0003.36
2024-03-13 16:51:00,SystemResetWarning,0821.9,5.00,000.00,020.6,020.1,000.0,029.1,022.5,26.3,0000.0,0004.29,0010.06,0003.38
2024-03-13 16:52:00,SystemResetWarning,0821.9,5.00,000.00,020.6,020.1,000.0,029.1,022.5,26.3,0000.0,0004.31,0010.10,0003.40
2024-03-13 16:53:00,SystemResetWarning,0821.9,5.00,000.00,020.6,020.0,000.0,029.1,022.4,26.3,0000.0,0004.30,0010.49,0003.40
2024-03-13 16:54:00,SystemResetWarning,0821.9,5.00,000.00,020.6,020.0,000.0,029.1,022.4,26.3,0000.0,0004.28,0010.43,0003.41
2024-03-13 16:55:00,SystemResetWarning,0821.9,5.00,000.00,020.6,020.1,000.0,029.1,022.4,26.3,0000.0,0004.31,0010.46,0003.43
2024-03-13 16:56:00,SystemResetWarning,0822.0,4.99,000.00,020.6,020.0,000.0,029.1,022.5,26.4,0000.0,0004.26,0010.34,0003.43
2024-03-13 16:57:00,SystemResetWarning,0822.0,5.00,000.00,020.6,020.1,000.0,029.1,022.4,26.4,0000.0,0004.24,0009.97,0003.44
2024-03-13 16:58:00,SystemResetWarning,0822.0,5.00,000.00,020.6,020.1,000.0,029.1,022.5,26.3,0000.0,0004.23,0009.85,0003.45
2024-03-13 16:59:00,SystemResetWarning,0822.0,5.00,000.00,020.6,020.1,000.0,029.1,022.5,26.4,0000.0,0004.25,0009.76,0003.48
